Weather History for KGNT - January, 2013

Change the Weather History Date:

Thursday, January 24, 2013

  Actual Average Record
Temperature  
Mean Temperature 40 °F -  
Max Temperature 63 °F 46 °F 66 °F (1970)
Min Temperature 17 °F 15 °F -2 °F (1964)
Degree Days  
Heating Degree Days 25    
Moisture  
Dew Point 24 °F    
Average Humidity 58    
Maximum Humidity 89    
Minimum Humidity 25    
Precipitation  
Precipitation 0.00 in - - ()
Sea Level Pressure  
Sea Level Pressure 30.35 in    
Wind  
Wind Speed 7 mph (NW)    
Max Wind Speed 15 mph    
Max Gust Speed 21 mph    
Visibility 10 miles    
Events      
Averages and records for this station are not official NWS values.
T = Trace of Precipitation, MM = Missing Value Source: NWS Daily Summary

Daily Weather History Graph

Daily Weather History Graph

Search for Another Location

Airport or City:

Trip Planner

Search our weather history database for the weather conditions in past years. The results will help you decide how hot, cold, wet, or windy it might be!

Date:

Astronomy

Jan. 24, 2013 Rise Set
Actual Time 7:15 AM MST 5:32 PM MST
Civil Twilight 6:48 AM MST 5:59 PM MST
Nautical Twilight 6:17 AM MST 6:30 PM MST
Astronomical Twilight 5:47 AM MST 7:00 PM MST
Moon 3:38 PM MST (1/24) 5:14 AM MST (1/24)
Length of Visible Light 11h 10m
Length of Day
10h 16m
Waxing Gibbous, 95% of the Moon is Illuminated
Jan 24
Waxing Gibbous
Jan 26
Full
Feb 3
Last Quarter
Feb 10
New
Feb 17
First Quarter

Hourly Weather History & Observations

Time (MST) Temp. Windchill Dew Point Humidity Pressure Visibility Wind Dir Wind Speed Gust Speed Precip Events Conditions
12:15 AM 21.9 °F 13.4 °F 9.9 °F 60% 30.38 in 10.0 mi NW 6.9 mph - N/A   Clear
12:35 AM 20.1 °F 12.3 °F 8.4 °F 61% 30.38 in 10.0 mi NW 5.8 mph - N/A   Clear
12:55 AM 19.2 °F 9.3 °F 8.4 °F 63% 30.38 in 10.0 mi NW 8.1 mph - N/A   Clear
1:15 AM 20.3 °F 9.8 °F 10.8 °F 67% 30.38 in 10.0 mi WNW 9.2 mph - N/A   Clear
1:35 AM 23.0 °F 14.7 °F 12.0 °F 63% 30.39 in 10.0 mi NW 6.9 mph - N/A   Clear
1:55 AM 23.7 °F 14.7 °F 13.1 °F 64% 30.39 in 10.0 mi WNW 8.1 mph - N/A   Clear
2:15 AM 24.6 °F 15.8 °F 14.4 °F 65% 30.39 in 10.0 mi WNW 8.1 mph - N/A   Clear
2:35 AM 24.3 °F 19.9 °F 13.8 °F 64% 30.39 in 10.0 mi North 3.5 mph - N/A   Clear
2:55 AM 20.5 °F 14.0 °F 10.0 °F 64% 30.38 in 10.0 mi North 4.6 mph - N/A   Clear
3:15 AM 17.2 °F 10.2 °F 8.1 °F 67% 30.38 in 10.0 mi NNW 4.6 mph - N/A   Clear
3:35 AM 20.5 °F 14.0 °F 11.7 °F 69% 30.39 in 10.0 mi WNW 4.6 mph - N/A   Clear
3:55 AM 20.7 °F 13.0 °F 12.7 °F 71% 30.38 in 10.0 mi WNW 5.8 mph - N/A   Clear
4:15 AM 21.2 °F 12.6 °F 13.5 °F 72% 30.38 in 10.0 mi NW 6.9 mph - N/A   Clear
4:35 AM 19.9 °F 11.1 °F 11.8 °F 71% 30.39 in 10.0 mi NW 6.9 mph - N/A   Clear
4:55 AM 19.9 °F 11.1 °F 12.2 °F 72% 30.38 in 10.0 mi WNW 6.9 mph - N/A   Clear
5:15 AM 20.7 °F 11.9 °F 12.7 °F 71% 30.38 in 10.0 mi NW 6.9 mph - N/A   Clear
5:35 AM 21.7 °F 13.2 °F 13.1 °F 69% 30.38 in 10.0 mi WNW 6.9 mph - N/A   Clear
5:55 AM 22.6 °F 13.4 °F 12.7 °F 66% 30.37 in 10.0 mi NW 8.1 mph - N/A   Clear
6:15 AM 22.8 °F 15.5 °F 12.9 °F 66% 30.38 in 10.0 mi NNW 5.8 mph - N/A   Clear
6:35 AM 21.9 °F 15.7 °F 12.0 °F 66% 30.38 in 10.0 mi NW 4.6 mph - N/A   Clear
6:55 AM 22.1 °F - 12.6 °F 67% 30.38 in 10.0 mi Calm Calm - N/A   Clear
7:15 AM 22.6 °F - 11.8 °F 63% 30.38 in 10.0 mi Calm Calm - N/A   Clear
7:35 AM 24.3 °F 17.3 °F 12.2 °F 60% 30.38 in 10.0 mi North 5.8 mph - N/A   Clear
7:55 AM 25.2 °F 18.3 °F 12.7 °F 59% 30.38 in 10.0 mi NW 5.8 mph - N/A   Clear
8:15 AM 25.3 °F 18.5 °F 12.4 °F 58% 30.38 in 10.0 mi NNW 5.8 mph - N/A   Clear
8:35 AM 27.5 °F 21.1 °F 13.3 °F 55% 30.38 in 10.0 mi WNW 5.8 mph - N/A   Clear
8:55 AM 28.9 °F 22.8 °F 14.2 °F 54% 30.38 in 10.0 mi NNW 5.8 mph - N/A   Clear
9:15 AM 31.3 °F 25.6 °F 16.2 °F 54% 30.38 in 10.0 mi NW 5.8 mph - N/A   Clear
9:35 AM 32.2 °F 27.7 °F 15.4 °F 50% 30.38 in 10.0 mi NNW 4.6 mph - N/A   Clear
9:55 AM 35.1 °F 32.2 °F 16.0 °F 46% 30.38 in 10.0 mi NNW 3.5 mph - N/A   Clear
10:15 AM 38.1 °F 33.7 °F 17.1 °F 43% 30.38 in 10.0 mi NW 5.8 mph - N/A   Clear
10:35 AM 42.4 °F 38.1 °F 16.9 °F 36% 30.38 in 10.0 mi NNW 6.9 mph - N/A   Clear
10:55 AM 45.1 °F 43.7 °F 16.2 °F 31% 30.38 in 10.0 mi NNW 3.5 mph - N/A   Clear
11:15 AM 47.1 °F - 16.5 °F 29% 30.37 in 10.0 mi Calm Calm - N/A   Clear
11:35 AM 50.7 °F - 16.9 °F 26% 30.37 in 10.0 mi Calm Calm - N/A   Clear
11:55 AM 51.3 °F - 16.7 °F 25% 30.35 in 10.0 mi Calm Calm - N/A   Clear
12:15 PM 52.0 °F - 17.4 °F 26% 30.34 in 10.0 mi Calm Calm - N/A   Clear
12:35 PM 53.4 °F - 18.1 °F 25% 30.32 in 10.0 mi SE 3.5 mph - N/A   Scattered Clouds
12:55 PM 55.0 °F - 20.1 °F 26% 30.30 in 10.0 mi East 3.5 mph - N/A   Overcast
1:15 PM 58.1 °F - 23.9 °F 27% 30.29 in 10.0 mi West 11.5 mph - N/A   Overcast
1:35 PM 62.1 °F - 29.1 °F 29% 30.28 in 10.0 mi West 13.8 mph 18.4 mph N/A   Overcast
1:55 PM 63.0 °F - 28.9 °F 28% 30.28 in 10.0 mi West 15.0 mph - N/A   Overcast
2:15 PM 63.1 °F - 29.3 °F 28% 30.28 in 10.0 mi WNW 11.5 mph 19.6 mph N/A   Overcast
2:35 PM 59.5 °F - 28.8 °F 31% 30.28 in 10.0 mi West 13.8 mph 19.6 mph N/A   Overcast
2:55 PM 60.8 °F - 30.0 °F 31% 30.28 in 10.0 mi WNW 12.7 mph 19.6 mph N/A   Overcast
3:15 PM 59.9 °F - 31.8 °F 35% 30.29 in 10.0 mi WNW 12.7 mph 18.4 mph N/A   Overcast
3:35 PM 58.8 °F - 32.9 °F 38% 30.29 in 10.0 mi West 9.2 mph 16.1 mph N/A   Overcast
3:55 PM 57.4 °F - 35.1 °F 43% 30.30 in 10.0 mi West 15.0 mph 20.7 mph N/A   Overcast
4:15 PM 54.9 °F - 35.6 °F 48% 30.30 in 10.0 mi West 9.2 mph - N/A   Overcast
4:35 PM 53.6 °F - 36.0 °F 51% 30.30 in 10.0 mi West 9.2 mph - N/A   Overcast
4:55 PM 52.7 °F - 36.5 °F 54% 30.31 in 10.0 mi West 5.8 mph - N/A   Overcast
5:15 PM 52.3 °F - 36.3 °F 54% 30.30 in 10.0 mi NW 10.4 mph - N/A   Overcast
5:35 PM 51.4 °F - 36.5 °F 57% 30.30 in 10.0 mi NW 5.8 mph 16.1 mph N/A   Overcast
5:55 PM 50.9 °F - 36.5 °F 58% 30.31 in 10.0 mi NW 12.7 mph 16.1 mph N/A   Overcast
6:15 PM 50.4 °F - 37.2 °F 61% 30.32 in 10.0 mi NNW 6.9 mph - N/A   Overcast
6:35 PM 50.0 °F - 37.9 °F 63% 30.33 in 10.0 mi NW 11.5 mph 16.1 mph N/A   Overcast
6:55 PM 48.9 °F - 38.5 °F 67% 30.34 in 10.0 mi WNW 12.7 mph - N/A   Overcast
7:15 PM 48.4 °F - 37.9 °F 67% 30.35 in 10.0 mi NNW 10.4 mph - N/A   Overcast
7:35 PM 47.1 °F - 39.2 °F 74% 30.35 in 10.0 mi NNW 12.7 mph - N/A   Overcast
7:55 PM 45.9 °F 40.8 °F 39.4 °F 78% 30.34 in 10.0 mi NNW 10.4 mph - N/A   Overcast
8:15 PM 45.0 °F 40.6 °F 39.4 °F 81% 30.35 in 10.0 mi NNW 8.1 mph - N/A   Overcast
8:35 PM 44.6 °F 40.7 °F 39.4 °F 82% 30.34 in 10.0 mi NNW 6.9 mph - N/A   Overcast
8:55 PM 44.6 °F 40.7 °F 39.4 °F 82% 30.33 in 10.0 mi NNW 6.9 mph - N/A   Overcast
9:15 PM 43.9 °F 41.3 °F 38.8 °F 82% 30.33 in 10.0 mi NNW 4.6 mph - N/A   Overcast
9:35 PM 42.4 °F 38.8 °F 38.3 °F 85% 30.32 in 10.0 mi North 5.8 mph - N/A   Mostly Cloudy
9:55 PM 41.4 °F 38.4 °F 36.7 °F 83% 30.32 in 10.0 mi WNW 4.6 mph - N/A   Scattered Clouds
10:15 PM 39.4 °F 37.2 °F 35.8 °F 87% 30.33 in 10.0 mi NW 3.5 mph - N/A   Clear
10:35 PM 38.8 °F 36.5 °F 36.0 °F 89% 30.34 in 10.0 mi NW 3.5 mph - N/A   Mostly Cloudy
10:55 PM 41.0 °F - 37.4 °F 87% 30.34 in 10.0 mi Calm Calm - N/A   Overcast
11:15 PM 42.1 °F - 37.9 °F 85% 30.35 in 10.0 mi Calm Calm - N/A   Overcast
11:35 PM 42.8 °F 38.6 °F 37.9 °F 83% 30.36 in 10.0 mi WNW 6.9 mph - N/A   Overcast
11:55 PM 42.8 °F 39.3 °F 37.8 °F 82% 30.36 in 10.0 mi NW 5.8 mph - N/A   Overcast